FENGYUN 1C DEB, 29916

Orbit data source: Space-Track

FENGYUN 1C DEB, 29916 is space debris in SSO originally from a launch on Mon, 10 May 1999 UTC launched from the Taiyaun Space Center, China (TSC). Fengyun 1C debris stems from the Chinese weather satellite Fengyun-1C, which was intentionally destroyed by a Chinese anti-satellite missile in 2007. This event dramatically increased the amount of space debris, with thousands of trackable fragments posing hazards to satellites and human spaceflight. The Fengyun 1C debris cloud has become a focal point in discussions about space sustainability and the need for international regulations to prevent the creation of new debris.

Loading next visibility...
Identifier
29916, 1999-025HN
Orbit
SSO
Country
Flag of CNCN / PRC
Related business
Manufacturer
Unknown
Mission
Spacecraft
Bus & Motor
Unknown
Mass
Unknown
Launch date (UTC)
1999-05-10 (27 years ago)
Launch vehicle
Unknown
Launch site
Taiyaun Space Center, China (TSC)
Object type
Payload
Rocket body
Debris
Shape & HBR
Unknown shape, 0.1 m
Radar Cross Section
Small (<0.1 m²)

Expand to show TLE details & history
Last TLE update: 1 day ago

TLE from 1 day ago
0 FENGYUN 1C DEB
1 29916U 99025HN  26207.25213067  .00000543  00000-0  64181-3 0  9990
2 29916  99.1833 216.9151 0272418  41.9390  88.5394 13.57248851965110
Epoch: 2026-07-26T06:03Z
TLE epoch observation values (Epoch: 2026-07-26T06:03:04.089Z)
Latitude
45.72715°
Longitude
11.69071°
Altitude
1,052.948 km
Speed
7.33 km/s
True Right ascension
03h 05m 38s
True Declination
45° 33' 43"
Sunlit
Object was in daylight at epoch
Visualization orbit readout
Latitude
Unknown
Longitude
Unknown
Altitude
Unknown
Speed
Unknown
Apparent Right ascension
Unknown
Apparent Declination
Unknown
Sunlit
N/A
Visualization observer readout
Local Sidereal Time
23:47:12
Azimuth
Unknown
Elevation
Unknown
Doppler factor
Unknown
Orbital elements
Apogee altitude
1,245.134 km
Perigee altitude
840.806 km
Semi-major axis
7,421.107 km
Eccentricity
0.02724
Inclination
99.1833°
RAAN
216.9151°
Arg. of periapsis
41.939°
True anomaly
91.66123°
Mean anomaly
88.5394°
Eccentric anomaly
90.10024°
Mean motion
3.395 °/min
Orbital period
106.04 mins
BSTAR
0.00064181
Loading maneuver chart data...
Computing Atmospheric mass density...
Loading historical data...
Loading historical data...
Loading historical data...
Loading historical data...
Loading historical data...
Loading historical data...
Loading historical data...

Documentation

Showing up to 5 results
|